Location: Bun
(42.9667°N, 0.1500°W)
Time: 16:41:57
(UTC+00:00)

NOAA 6 - Pass Details

Date: 03 February 2023
Orbit: 770 x 786 km, 98.7° (Epoch: 23 March)

Event Time Altitude Azimuth Distance (km) Brightness Sun altitude
Rises 17:44:23 0° 161° (SSE) 3,246 7.2 -5.8°
Reaches altitude 10° 17:46:40 10° 161° (SSE) 2,325 6.5 -6.2°
Maximum altitude 17:51:48 81° 74° (ENE) 797 4.0 -7.1°
Drops below altitude 10° 17:57:00 10° 348° (NNW) 2,351 6.5 -8.0°
Sets 17:59:20 0° 348° (NNW) 3,286 7.3 -8.4°
